Tracking 20093 objects as of 16-Dec-2019
HD Live streaming from Space Station
objects crossing your sky now

AISTECHSAT-3

Track AISTECHSAT-3 now!
10-day predictions
AISTECHSAT-3 is classified as:


NORAD ID: 44103
Int'l Code: 2019-018AB
Perigee: 493.9 km
Apogee: 514.7 km
Inclination: 97.4 °
Period: 94.6 minutes
Semi major axis: 6875 km
RCS: Unknown
Launch date: April 1, 2019
Source: Spain (SPN)
Launch site: SRIHARIKOTA (SRI)

Uplink (MHz):
Downlink (MHz): 436.730
Beacon (MHz):
Mode: 4k8/9k6 GFSK
Call sign:
Status: Active

aabbcc
Your satellite tracking list
Your tracking list is empty




NASA's NSSDC Master Catalog

Two Line Element Set (TLE):
1 44103U 19018AB  19350.13204042  .00000704  00000-0  33005-4 0  9991
2 44103  97.4354  48.5383 0015171 111.6791 278.5799 15.22878948 39382
Source of the keplerian elements: AFSPC